Location: Caltech
(34.1382°N, 118.1253°W)
Time: 05:42:26
(UTC-07:00)

SL-08 RB Rocket - Visible Passes

Search period start: 25 April 2018 00:00
Search period end: 05 May 2018 00:00
Orbit: 646 x 686 km, 97.9° (Epoch: 24 April)

Date Brightness Start Highest point End Pass type
(mag) Time Alt. Az. Time Alt. Az. Time Alt. Az.
25 Apr 4.3 22:03:48 53° NNW 22:03:48 53° NNW 22:07:14 10° NNW visible
26 Apr 5.3 20:57:29 17° ENE 20:57:36 17° ENE 21:00:29 10° NNE visible
26 Apr 5.4 22:35:36 30° WNW 22:35:36 30° WNW 22:38:26 10° NNW visible
27 Apr 4.4 21:29:17 36° ENE 21:29:17 36° ENE 21:33:00 10° N visible
27 Apr 6.4 23:07:24 14° WNW 23:07:24 14° WNW 23:08:44 10° NW visible
28 Apr 4.0 22:01:06 61° N 22:01:06 61° N 22:04:48 10° NNW visible
29 Apr 5.4 20:54:47 16° ENE 20:55:11 16° ENE 20:57:56 10° NNE visible
29 Apr 5.2 22:32:54 33° WNW 22:32:54 33° WNW 22:36:03 10° NNW visible
30 Apr 4.4 21:26:36 35° ENE 21:26:36 35° ENE 21:30:32 10° N visible
30 Apr 6.2 23:04:44 15° WNW 23:04:44 15° WNW 23:06:27 10° NW visible
01 May 3.8 21:58:24 69° N 21:58:24 69° N 22:02:22 10° N visible
02 May 5.4 20:52:05 15° ENE 20:52:47 15° ENE 20:55:22 10° NNE visible
02 May 4.9 22:30:13 37° WNW 22:30:13 37° WNW 22:33:40 10° NNW visible
03 May 4.5 21:23:54 33° ENE 21:24:03 33° ENE 21:28:03 10° N visible
03 May 6.1 23:02:02 17° W 23:02:02 17° W 23:04:09 10° NW visible
04 May 3.6 21:55:43 75° NE 21:55:43 75° NE 21:59:56 10° N visible
